OMD680 KLAX-KMZJ

Flight info

Callsign OMD680
Flight time 1h 13m
Altitude 37000
Route DOTSS2 CNERY BLH J169 TFD
Aircraft A320/M-SDE3FGHIRWY/LB1

Departure

Time 2026-05-08 02:53
Airport Los Angeles International Airport (KLAX)

Arrival

Time 2026-05-08 04:07
Airport Pinal Airpark (KMZJ)
Time Latitude Longitude Altitude Speed Heading
2026-05-08 02:33 33.94224 -118.38430 146 ft 0 kts 315°
2026-05-08 02:45 33.94222 -118.38427 145 ft 2 kts 316°
2026-05-08 02:45 33.94209 -118.38416 130 ft 2 kts 322°
2026-05-08 02:45 33.94198 -118.38402 138 ft 3 kts 298°
2026-05-08 02:45 33.94188 -118.38380 130 ft 3 kts 297°
2026-05-08 02:46 33.94180 -118.38359 120 ft 3 kts 290°
2026-05-08 02:46 33.94175 -118.38336 121 ft 3 kts 264°
2026-05-08 02:46 33.94179 -118.38320 120 ft 2 kts 216°
2026-05-08 02:46 33.94184 -118.38315 125 ft 0 kts 213°
2026-05-08 02:50 33.94183 -118.38316 126 ft 1 kts 213°
2026-05-08 02:50 33.94167 -118.38328 122 ft 4 kts 212°
2026-05-08 02:50 33.94130 -118.38346 126 ft 7 kts 188°
2026-05-08 02:50 33.94076 -118.38340 124 ft 6 kts 171°
2026-05-08 02:51 33.94061 -118.38338 126 ft 0 kts 172°
2026-05-08 02:51 33.94060 -118.38335 126 ft 1 kts 149°
2026-05-08 02:51 33.94051 -118.38286 124 ft 9 kts 85°
2026-05-08 02:51 33.94062 -118.38200 126 ft 12 kts 82°
2026-05-08 02:52 33.94073 -118.38095 126 ft 14 kts 83°
2026-05-08 02:52 33.94029 -118.38005 123 ft 15 kts 173°
2026-05-08 02:52 33.93976 -118.38107 126 ft 18 kts 263°
2026-05-08 02:52 33.93935 -118.38504 126 ft 92 kts 263°
2026-05-08 02:53 33.93868 -118.39171 125 ft 143 kts 263°
2026-05-08 02:53 33.93730 -118.40510 644 ft 167 kts 264°
2026-05-08 02:53 33.93587 -118.41937 1650 ft 174 kts 265°
2026-05-08 02:53 33.93437 -118.43415 2232 ft 190 kts 265°
2026-05-08 02:54 33.93262 -118.45114 2563 ft 219 kts 265°
2026-05-08 02:54 33.92812 -118.46966 2988 ft 246 kts 242°
2026-05-08 02:54 33.91791 -118.48709 3684 ft 260 kts 233°
2026-05-08 02:54 33.90596 -118.50369 4605 ft 264 kts 230°
2026-05-08 02:55 33.89334 -118.51994 5507 ft 268 kts 230°
2026-05-08 02:55 33.86503 -118.55016 7185 ft 283 kts 208°
2026-05-08 02:55 33.84589 -118.55700 7989 ft 292 kts 188°
2026-05-08 02:56 33.82541 -118.55550 8819 ft 300 kts 168°
2026-05-08 02:56 33.80494 -118.55000 9676 ft 304 kts 168°
2026-05-08 02:56 33.78406 -118.54431 10336 ft 316 kts 167°
2026-05-08 02:56 33.76189 -118.53828 10606 ft 339 kts 167°
2026-05-08 02:57 33.73848 -118.53052 10957 ft 356 kts 158°
2026-05-08 02:57 33.71654 -118.51655 11654 ft 358 kts 143°
2026-05-08 02:57 33.69788 -118.49680 12421 ft 358 kts 130°
2026-05-08 02:57 33.68381 -118.47227 13189 ft 358 kts 115°
2026-05-08 02:58 33.67457 -118.44441 13931 ft 359 kts 108°
2026-05-08 02:58 33.66631 -118.41613 14480 ft 355 kts 108°
2026-05-08 02:58 33.65827 -118.38882 14599 ft 343 kts 108°
2026-05-08 02:58 33.65042 -118.36125 14746 ft 356 kts 105°
2026-05-08 02:59 33.64547 -118.33187 15194 ft 363 kts 94°
2026-05-08 02:59 33.64469 -118.30138 15770 ft 367 kts 89°
2026-05-08 02:59 33.64469 -118.27056 16380 ft 371 kts 89°
2026-05-08 02:59 33.64469 -118.23943 16994 ft 375 kts 89°
2026-05-08 03:00 33.64468 -118.20802 17608 ft 378 kts 89°
2026-05-08 03:00 33.64470 -118.17628 18231 ft 382 kts 89°
2026-05-08 03:00 33.64474 -118.14427 18786 ft 386 kts 89°
2026-05-08 03:00 33.64474 -118.11197 19359 ft 389 kts 89°
2026-05-08 03:01 33.64471 -118.07939 19928 ft 392 kts 89°
2026-05-08 03:01 33.64467 -118.04695 20500 ft 395 kts 88°
2026-05-08 03:01 33.64462 -118.01399 21067 ft 397 kts 88°
2026-05-08 03:01 33.64457 -117.98071 21607 ft 400 kts 88°
2026-05-08 03:02 33.64451 -117.94716 22126 ft 403 kts 88°
2026-05-08 03:02 33.64443 -117.91344 22643 ft 406 kts 88°
2026-05-08 03:02 33.64434 -117.87946 23143 ft 409 kts 88°
2026-05-08 03:02 33.64426 -117.84522 23640 ft 412 kts 88°
2026-05-08 03:03 33.64379 -117.81071 24059 ft 416 kts 92°
2026-05-08 03:03 33.63934 -117.77624 24481 ft 421 kts 102°
2026-05-08 03:03 33.63114 -117.74235 24896 ft 424 kts 104°
2026-05-08 03:03 33.62270 -117.70833 25314 ft 427 kts 104°
2026-05-08 03:04 33.61425 -117.67414 25713 ft 429 kts 104°
2026-05-08 03:04 33.60574 -117.63971 26126 ft 431 kts 104°
2026-05-08 03:04 33.59723 -117.60511 26529 ft 434 kts 104°
2026-05-08 03:04 33.58870 -117.57032 26918 ft 436 kts 104°
2026-05-08 03:05 33.58010 -117.53529 27320 ft 439 kts 104°
2026-05-08 03:05 33.57151 -117.50058 27713 ft 441 kts 104°
2026-05-08 03:05 33.56271 -117.46518 28131 ft 444 kts 104°
2026-05-08 03:05 33.55386 -117.42965 28533 ft 446 kts 104°
2026-05-08 03:06 33.54491 -117.39386 28911 ft 449 kts 104°
2026-05-08 03:06 33.53591 -117.35793 29318 ft 452 kts 104°
2026-05-08 03:06 33.52684 -117.32169 29684 ft 455 kts 104°
2026-05-08 03:06 33.51776 -117.28534 30063 ft 457 kts 104°
2026-05-08 03:07 33.50922 -117.24862 30385 ft 458 kts 99°
2026-05-08 03:07 33.50474 -117.21090 30715 ft 457 kts 91°
2026-05-08 03:07 33.50409 -117.17295 31178 ft 454 kts 88°
2026-05-08 03:07 33.50369 -117.13511 31679 ft 453 kts 88°
2026-05-08 03:08 33.50321 -117.09748 32160 ft 452 kts 88°
2026-05-08 03:08 33.50267 -117.05992 32645 ft 450 kts 88°
2026-05-08 03:08 33.50206 -117.02246 33134 ft 449 kts 88°
2026-05-08 03:08 33.50146 -116.98516 33622 ft 448 kts 88°
2026-05-08 03:09 33.50089 -116.94790 34098 ft 446 kts 88°
2026-05-08 03:09 33.50034 -116.91085 34517 ft 445 kts 88°
2026-05-08 03:09 33.49980 -116.87372 34897 ft 445 kts 88°
2026-05-08 03:09 33.49925 -116.83662 35278 ft 445 kts 88°
2026-05-08 03:10 33.49871 -116.79963 35640 ft 444 kts 88°
2026-05-08 03:10 33.49817 -116.76264 36016 ft 444 kts 88°
2026-05-08 03:10 33.49760 -116.72566 36362 ft 444 kts 88°
2026-05-08 03:10 33.49702 -116.68873 36714 ft 443 kts 88°
2026-05-08 03:11 33.49638 -116.65179 36931 ft 444 kts 88°
2026-05-08 03:11 33.49503 -116.57775 36938 ft 445 kts 88°
2026-05-08 03:12 33.49363 -116.50358 36907 ft 445 kts 88°
2026-05-08 03:12 33.49226 -116.42956 36908 ft 445 kts 88°
2026-05-08 03:13 33.49104 -116.35554 36893 ft 444 kts 88°
2026-05-08 03:13 33.49004 -116.28156 36891 ft 444 kts 88°
2026-05-08 03:14 33.48896 -116.20756 36843 ft 445 kts 88°
2026-05-08 03:14 33.48777 -116.13390 36839 ft 445 kts 88°
2026-05-08 03:15 33.48712 -116.05985 36839 ft 443 kts 83°
2026-05-08 03:15 33.49946 -115.98835 36836 ft 436 kts 68°
2026-05-08 03:16 33.51970 -115.91968 36854 ft 437 kts 67°
2026-05-08 03:16 33.53974 -115.85109 36855 ft 436 kts 68°
2026-05-08 03:17 33.55969 -115.78239 36848 ft 436 kts 68°
2026-05-08 03:17 33.57963 -115.71379 36855 ft 436 kts 68°
2026-05-08 03:18 33.59959 -115.64518 36854 ft 435 kts 68°
2026-05-08 03:18 33.61636 -115.57544 36868 ft 440 kts 81°
2026-05-08 03:19 33.61590 -115.50176 36864 ft 443 kts 88°
2026-05-08 03:19 33.61411 -115.42792 36859 ft 443 kts 88°
2026-05-08 03:20 33.61229 -115.35409 36857 ft 443 kts 88°
2026-05-08 03:20 33.61047 -115.28025 36853 ft 443 kts 88°
2026-05-08 03:21 33.60852 -115.20673 36842 ft 444 kts 88°
2026-05-08 03:21 33.60653 -115.13254 36837 ft 445 kts 88°
2026-05-08 03:22 33.60455 -115.05825 36844 ft 446 kts 89°
2026-05-08 03:22 33.60246 -114.98397 36870 ft 446 kts 88°
2026-05-08 03:23 33.60035 -114.90974 36871 ft 445 kts 88°
2026-05-08 03:23 33.59823 -114.83571 36871 ft 444 kts 88°
2026-05-08 03:24 33.59602 -114.76166 36868 ft 444 kts 89°
2026-05-08 03:24 33.59110 -114.68766 36866 ft 446 kts 92°
2026-05-08 03:25 33.58368 -114.61383 36866 ft 446 kts 93°
2026-05-08 03:25 33.57626 -114.53995 36860 ft 446 kts 93°
2026-05-08 03:26 33.56954 -114.46649 36859 ft 446 kts 92°
2026-05-08 03:26 33.56303 -114.39261 36853 ft 446 kts 92°
2026-05-08 03:27 33.55639 -114.31881 36880 ft 444 kts 92°
2026-05-08 03:27 33.54963 -114.24534 36878 ft 442 kts 92°
2026-05-08 03:28 33.54284 -114.17214 36875 ft 441 kts 92°
2026-05-08 03:28 33.53599 -114.09906 36870 ft 441 kts 92°
2026-05-08 03:29 33.52919 -114.02616 36869 ft 441 kts 92°
2026-05-08 03:29 33.52229 -113.95305 36895 ft 442 kts 92°
2026-05-08 03:30 33.51184 -113.84318 36520 ft 445 kts 92°
2026-05-08 03:30 33.50481 -113.76887 34993 ft 452 kts 92°
2026-05-08 03:31 33.49762 -113.69404 33544 ft 454 kts 92°
2026-05-08 03:31 33.49029 -113.61878 31819 ft 457 kts 92°
2026-05-08 03:32 33.48656 -113.58082 30932 ft 459 kts 92°
2026-05-08 03:32 33.48280 -113.54296 30039 ft 457 kts 92°
2026-05-08 03:32 33.47905 -113.50527 29172 ft 455 kts 92°
2026-05-08 03:32 33.47533 -113.46771 28323 ft 453 kts 92°
2026-05-08 03:33 33.47166 -113.43080 28100 ft 437 kts 92°
2026-05-08 03:33 33.46807 -113.39527 27989 ft 421 kts 92°
2026-05-08 03:33 33.46399 -113.36117 27853 ft 409 kts 98°
2026-05-08 03:33 33.45554 -113.32900 27722 ft 402 kts 108°
2026-05-08 03:34 33.43464 -113.27571 27385 ft 386 kts 110°
2026-05-08 03:34 33.42322 -113.24681 27023 ft 382 kts 110°
2026-05-08 03:34 33.41197 -113.21822 26607 ft 379 kts 110°
2026-05-08 03:35 33.40075 -113.18968 26184 ft 377 kts 110°
2026-05-08 03:35 33.38962 -113.16138 25738 ft 376 kts 110°
2026-05-08 03:35 33.37850 -113.13314 25203 ft 377 kts 110°
2026-05-08 03:35 33.36734 -113.10494 24859 ft 373 kts 110°
2026-05-08 03:36 33.35625 -113.07697 24490 ft 370 kts 111°
2026-05-08 03:36 33.34528 -113.04928 24091 ft 367 kts 111°
2026-05-08 03:36 33.33439 -113.02175 23683 ft 365 kts 111°
2026-05-08 03:36 33.32355 -112.99433 23211 ft 365 kts 111°
2026-05-08 03:37 33.31279 -112.96715 22834 ft 360 kts 111°
2026-05-08 03:37 33.30212 -112.94025 22447 ft 356 kts 111°
2026-05-08 03:37 33.29156 -112.91370 22099 ft 351 kts 111°
2026-05-08 03:37 33.28112 -112.88749 21762 ft 348 kts 111°
2026-05-08 03:38 33.27074 -112.86146 21416 ft 346 kts 111°
2026-05-08 03:38 33.26041 -112.83562 21077 ft 343 kts 111°
2026-05-08 03:38 33.25013 -112.80998 20743 ft 341 kts 111°
2026-05-08 03:38 33.23990 -112.78446 20408 ft 339 kts 111°
2026-05-08 03:39 33.22979 -112.75921 20080 ft 335 kts 112°
2026-05-08 03:39 33.21980 -112.73418 19751 ft 332 kts 111°
2026-05-08 03:39 33.20992 -112.70940 19422 ft 330 kts 111°
2026-05-08 03:39 33.20009 -112.68479 19106 ft 327 kts 111°
2026-05-08 03:40 33.19031 -112.66034 18779 ft 325 kts 111°
2026-05-08 03:40 33.18060 -112.63608 18468 ft 323 kts 112°
2026-05-08 03:40 33.17106 -112.61225 18156 ft 321 kts 112°
2026-05-08 03:40 33.16147 -112.58831 17811 ft 319 kts 112°
2026-05-08 03:41 33.15191 -112.56447 17521 ft 318 kts 112°
2026-05-08 03:41 33.14239 -112.54076 17213 ft 317 kts 112°
2026-05-08 03:41 33.13285 -112.51707 16914 ft 316 kts 111°
2026-05-08 03:41 33.12337 -112.49356 16613 ft 314 kts 111°
2026-05-08 03:42 33.11392 -112.47014 16301 ft 313 kts 111°
2026-05-08 03:42 33.10450 -112.44681 15995 ft 311 kts 112°
2026-05-08 03:42 33.09517 -112.42368 15682 ft 309 kts 112°
2026-05-08 03:42 33.08587 -112.40063 15373 ft 307 kts 112°
2026-05-08 03:43 33.07663 -112.37773 15076 ft 307 kts 112°
2026-05-08 03:43 33.06737 -112.35486 14784 ft 306 kts 112°
2026-05-08 03:43 33.05815 -112.33208 14488 ft 305 kts 112°
2026-05-08 03:43 33.04898 -112.30937 14186 ft 304 kts 112°
2026-05-08 03:44 33.03984 -112.28672 13888 ft 303 kts 111°
2026-05-08 03:44 33.03070 -112.26416 13589 ft 302 kts 112°
2026-05-08 03:44 33.02157 -112.24165 13262 ft 301 kts 112°
2026-05-08 03:44 33.01245 -112.21916 12968 ft 301 kts 112°
2026-05-08 03:45 33.00336 -112.19681 12676 ft 300 kts 112°
2026-05-08 03:45 32.99426 -112.17450 12346 ft 299 kts 112°
2026-05-08 03:45 32.98519 -112.15228 11970 ft 298 kts 112°
2026-05-08 03:45 32.97615 -112.13011 11600 ft 297 kts 112°
2026-05-08 03:46 32.96715 -112.10798 11234 ft 297 kts 112°
2026-05-08 03:46 32.95815 -112.08582 10878 ft 296 kts 113°
2026-05-08 03:46 32.94932 -112.06412 10516 ft 294 kts 113°
2026-05-08 03:46 32.94050 -112.04248 10160 ft 289 kts 114°
2026-05-08 03:47 32.93175 -112.02104 9809 ft 287 kts 114°
2026-05-08 03:47 32.92305 -111.99969 9446 ft 287 kts 114°
2026-05-08 03:47 32.91296 -111.97922 9059 ft 287 kts 124°
2026-05-08 03:47 32.90128 -111.95996 8683 ft 287 kts 124°
2026-05-08 03:48 32.88952 -111.94075 8311 ft 287 kts 124°
2026-05-08 03:48 32.87776 -111.92161 7906 ft 286 kts 124°
2026-05-08 03:48 32.86605 -111.90254 7435 ft 285 kts 124°
2026-05-08 03:48 32.85431 -111.88344 7040 ft 286 kts 125°
2026-05-08 03:49 32.84258 -111.86436 6616 ft 286 kts 125°
2026-05-08 03:49 32.83085 -111.84522 6189 ft 286 kts 125°
2026-05-08 03:49 32.81914 -111.82616 5748 ft 286 kts 126°
2026-05-08 03:49 32.80741 -111.80709 5468 ft 286 kts 126°
2026-05-08 03:50 32.79571 -111.78807 5192 ft 284 kts 126°
2026-05-08 03:50 32.78406 -111.76910 4936 ft 284 kts 126°
2026-05-08 03:50 32.77243 -111.75015 4686 ft 283 kts 126°
2026-05-08 03:50 32.76086 -111.73128 4440 ft 282 kts 126°
2026-05-08 03:51 32.74929 -111.71249 4205 ft 282 kts 126°
2026-05-08 03:51 32.73774 -111.69376 3971 ft 280 kts 126°
2026-05-08 03:51 32.72626 -111.67516 3854 ft 280 kts 126°
2026-05-08 03:51 32.71472 -111.65642 3862 ft 282 kts 126°
2026-05-08 03:52 32.70318 -111.63770 3861 ft 281 kts 126°
2026-05-08 03:52 32.69161 -111.61892 3867 ft 281 kts 126°
2026-05-08 03:52 32.68034 -111.60064 3866 ft 267 kts 126°
2026-05-08 03:52 32.66965 -111.58335 3867 ft 252 kts 126°
2026-05-08 03:53 32.65961 -111.56712 3866 ft 236 kts 126°
2026-05-08 03:53 32.65022 -111.55192 3920 ft 220 kts 126°
2026-05-08 03:53 32.64159 -111.53781 3948 ft 204 kts 123°
2026-05-08 03:53 32.63558 -111.52289 3938 ft 198 kts 111°
2026-05-08 03:54 32.63080 -111.50765 3941 ft 196 kts 109°
2026-05-08 03:54 32.62616 -111.49246 3947 ft 196 kts 109°
2026-05-08 03:54 32.62149 -111.47724 3955 ft 196 kts 109°
2026-05-08 03:54 32.61685 -111.46209 3962 ft 196 kts 109°
2026-05-08 03:55 32.61105 -111.44762 3967 ft 195 kts 122°
2026-05-08 03:55 32.60333 -111.43459 3972 ft 196 kts 130°
2026-05-08 03:55 32.59405 -111.42330 3906 ft 183 kts 137°
2026-05-08 03:55 32.58480 -111.41325 3803 ft 179 kts 138°
2026-05-08 03:56 32.57598 -111.40371 3645 ft 175 kts 134°
2026-05-08 03:56 32.56753 -111.39347 3422 ft 173 kts 133°
2026-05-08 03:56 32.55924 -111.38367 3183 ft 164 kts 134°
2026-05-08 03:56 32.55127 -111.37436 2963 ft 157 kts 134°
2026-05-08 03:57 32.54363 -111.36529 2779 ft 153 kts 135°
2026-05-08 03:57 32.53629 -111.35640 2561 ft 152 kts 135°
2026-05-08 03:57 32.52891 -111.34771 2292 ft 148 kts 137°
2026-05-08 03:57 32.52155 -111.33910 2103 ft 150 kts 137°
2026-05-08 03:58 32.51420 -111.33048 1897 ft 144 kts 136°
2026-05-08 03:58 32.50771 -111.32291 1943 ft 127 kts 137°
2026-05-08 03:58 32.50123 -111.31497 2525 ft 141 kts 131°
2026-05-08 03:58 32.49436 -111.30569 2990 ft 165 kts 131°
2026-05-08 03:59 32.48604 -111.29423 3456 ft 199 kts 130°
2026-05-08 03:59 32.47783 -111.28015 4068 ft 213 kts 106°
2026-05-08 03:59 32.47901 -111.26298 4299 ft 220 kts 66°
2026-05-08 03:59 32.48518 -111.24677 4280 ft 218 kts 63°
2026-05-08 04:00 32.49159 -111.23034 4452 ft 221 kts 63°
2026-05-08 04:00 32.49766 -111.21351 4370 ft 221 kts 60°
2026-05-08 04:00 32.50796 -111.20086 4245 ft 213 kts 25°
2026-05-08 04:00 32.52210 -111.19778 4137 ft 209 kts 350°
2026-05-08 04:01 32.53494 -111.20516 4048 ft 208 kts 317°
2026-05-08 04:01 32.54455 -111.21798 3982 ft 208 kts 309°
2026-05-08 04:01 32.55361 -111.23138 3990 ft 208 kts 309°
2026-05-08 04:01 32.56262 -111.24481 3990 ft 208 kts 309°
2026-05-08 04:02 32.57167 -111.25824 3989 ft 209 kts 309°
2026-05-08 04:02 32.58071 -111.27168 3999 ft 209 kts 309°
2026-05-08 04:02 32.58974 -111.28517 3999 ft 209 kts 309°
2026-05-08 04:02 32.59882 -111.29874 3997 ft 210 kts 309°
2026-05-08 04:03 32.60796 -111.31232 3993 ft 211 kts 309°
2026-05-08 04:03 32.61520 -111.34410 3990 ft 203 kts 251°
2026-05-08 04:03 32.60783 -111.35743 3985 ft 183 kts 231°
2026-05-08 04:04 32.59881 -111.36690 3906 ft 166 kts 221°
2026-05-08 04:04 32.58962 -111.37508 3619 ft 165 kts 219°
2026-05-08 04:04 32.58041 -111.38290 3361 ft 162 kts 213°
2026-05-08 04:04 32.56965 -111.38589 3107 ft 162 kts 174°
2026-05-08 04:05 32.55936 -111.38051 2776 ft 165 kts 141°
2026-05-08 04:05 32.55063 -111.37215 2631 ft 159 kts 142°
2026-05-08 04:05 32.54247 -111.36361 2483 ft 155 kts 137°
2026-05-08 04:05 32.53499 -111.35479 2362 ft 155 kts 136°
2026-05-08 04:06 32.52730 -111.34599 2145 ft 152 kts 137°
2026-05-08 04:06 32.51975 -111.33706 1979 ft 153 kts 136°
2026-05-08 04:06 32.51242 -111.32837 1888 ft 137 kts 136°
2026-05-08 04:06 32.50764 -111.32276 1888 ft 54 kts 135°
2026-05-08 04:07 32.50526 -111.31999 1898 ft 46 kts 136°
2026-05-08 04:07 32.50360 -111.31790 1890 ft 9 kts 107°
2026-05-08 04:07 32.50400 -111.31740 1896 ft 9 kts 40°
2026-05-08 04:07 32.50463 -111.31698 1898 ft 11 kts
2026-05-08 04:08 32.50531 -111.31750 1896 ft 14 kts 315°
2026-05-08 04:08 32.50605 -111.31840 1900 ft 17 kts 314°
2026-05-08 04:08 32.50699 -111.31896 1899 ft 15 kts 26°
2026-05-08 04:08 32.50739 -111.31901 1891 ft 5 kts 235°
2026-05-08 04:09 32.50734 -111.31906 1896 ft 0 kts 223°